Temperature
13 13 13 13 13 13 13 13 12 12 12 12 12 12 12 12 12 12 11 12 12 11 11 11 11 11 11 11 11 11 11 11 11 11 11 11 11 11 11 11 11 11 11
12 13 13 12 12 12 12 12 12 12 12 12 12 12 12 11 11 11 11 11 11 11 11 11 11 11 11 11 11 11 11 11 11 11 11 11 11 11 11 11 10 10 10
12 12 12 12 12 12 12 12 12 12 12 12 11 11 11 11 11 11 11 11 11 11 11 11 11 10 10 10 10 10 10 10 10 10 10 10 10 10 10 10 10 10 10
12 12 12 12 12 12 12 12 11 11 11 11 11 11 11 11 11 11 11 10 10 10 10 10 10 10 10 10 10 10 10 10 10 9 9 9 9 10 10 10 10 10 9
11 11 12 12 12 11 11 11 11 11 11 11 11 11 11 10 10 10 10 10 10 10 10 10 10 10 10 10 9 9 9 9 9 9 9 9 9 9 9 9 9 9 9
11 11 11 11 11 11 11 11 11 11 11 10 10 10 10 10 10 10 10 10 10 10 10 9 9 9 9 9 9 9 9 9 9 9 9 9 9 8 8 8 8 8 8
11 11 11 11 11 11 11 10 10 10 10 10 10 10 9 9 9 9 9 9 9 9 9 9 9 9 9 9 9 9 9 9 8 8 8 8 8 8 8 8 8 8 8
10 10 10 10 10 10 10 10 10 10 10 9 9 9 8 8 9 9 9 9 9 9 9 9 9 9 9 9 9 8 8 8 8 8 8 8 8 8 7 7 7 7 7
10 10 10 10 10 10 10 10 10 10 9 9 9 9 8 9 8 8 8 8 8 8 8 8 8 8 8 8 8 8 8 8 8 8 8 7 7 7 7 7 7 7 7
9 9 9 9 9 9 9 9 9 9 9 9 9 9 8 8 8 7 8 8 8 8 8 8 8 8 8 8 8 8 8 8 8 7 7 7 7 7 7 7 6 6 6
9 9 9 9 9 9 9 9 9 9 9 9 8 8 8 8 8 7 7 7 7 7 7 7 7 7 7 7 7 7 7 7 7 7 7 7 6 6 6 6 6 6 6
9 8 8 9 9 9 9 9 9 9 9 8 8 8 8 8 7 7 7 6 6 6 7 7 7 7 7 7 7 7 7 7 7 7 7 6 6 6 6 6 6 6 6
8 8 8 8 8 8 8 8 8 8 8 8 8 8 7 7 7 7 7 6 5 6 6 6 6 6 6 6 6 6 6 6 6 6 6 6 6 6 6 6 6 6 6
8 8 8 8 8 8 8 8 8 8 8 8 7 7 7 7 7 7 6 6 5 5 5 5 6 6 6 6 5 6 6 6 6 6 6 6 6 6 6 6 5 5 5
7 7 7 7 7 7 7 7 7 7 7 7 7 7 7 7 6 6 6 6 5 4 5 5 5 5 5 5 5 5 5 5 5 5 5 5 5 5 5 5 5 5 5
7 7 7 7 7 7 7 7 7 7 7 7 7 6 6 6 6 6 6 5 5 5 4 4 4 4 5 5 5 5 5 5 5 5 5 5 5 5 5 5 5 5 5
7 6 6 6 6 6 6 6 6 6 6 6 6 6 6 6 5 5 5 5 5 4 4 4 4 4 4 4 4 4 4 4 4 4 4 4 4 4 4 4 4 4 4
6 6 6 6 6 6 6 6 6 6 6 6 6 5 5 5 5 5 5 5 4 4 4 4 4 4 4 4 4 4 4 4 4 4 4 4 4 4 4 4 4 4 4
6 6 6 6 6 5 5 5 5 5 5 5 5 5 5 5 5 5 4 4 4 4 4 3 3 3 3 3 3 3 3 3 3 4 4 4 3 3 3 3 3 3 3
5 5 5 5 5 5 5 5 5 5 5 5 5 5 5 4 4 4 4 4 4 3 3 3 3 3 3 3 3 3 3 3 3 3 3 3 3 3 3 3 3 3 3
5 5 5 5 5 5 5 5 5 4 4 4 4 4 4 4 4 4 4 3 3 3 3 2 2 2 2 2 2 2 2 2 2 2 2 2 2 2 2 2 2 2 2
5 5 5 5 5 5 5 4 4 4 4 4 4 4 4 4 3 3 3 3 3 3 2 2 2 2 2 2 1 1 1 1 1 2 1 2 2 2 2 2 2 2 2
4 4 4 4 4 4 4 4 4 4 4 3 3 3 3 3 3 3 3 3 2 2 2 2 2 1 1 1 1 1 1 0 0 1 1 1 1 1 1 1 1 1 1
4 4 4 4 4 4 4 4 3 3 3 3 3 3 3 3 2 2 2 2 2 2 2 1 1 1 1 1 1 0 -0 -0 0 0 -0 -0 0 0 0 1 1 1 1
4 4 3 3 3 3 3 3 3 3 3 2 2 2 2 2 2 2 2 1 1 1 1 1 1 1 0 0 0 -0 -1 -1 -1 -1 -1 -1 -1 -1 -0 -0 -0 -0 -0
3 3 3 3 3 3 3 2 2 2 2 2 2 2 2 2 2 1 1 1 1 1 1 0 0 0 -0 -0 -0 -1 -1 -1 -2 -2 -2 -2 -2 -2 -2 -1 -1 -1 -1
Wind_Speed
3 3 3 3 3 3 3 3 3 3 3 3 2 2 3 3 3 3 4 7 6 5 5 4 4 4 3 3 3 3 3 2 2 3 3 3 4 4 4 5 5 6 6
3 3 3 3 3 3 3 3 3 3 3 3 2 2 2 3 2 3 3 5 6 6 6 6 5 4 4 3 3 3 2 2 2 2 2 3 3 3 4 4 5 6 6
4 3 3 3 3 4 4 3 3 3 3 3 2 2 2 2 2 3 3 2 4 6 6 6 6 5 5 4 4 4 3 2 2 3 2 3 3 4 4 4 5 6 6
4 3 3 2 4 4 4 3 3 3 2 2 2 2 2 2 2 2 3 2 2 3 4 5 5 5 5 5 4 3 3 3 3 3 3 3 3 4 4 5 5 6 6
4 3 3 3 4 4 4 4 3 3 3 2 2 1 1 2 2 3 3 3 3 2 2 3 4 5 5 5 4 4 3 3 3 3 3 4 4 4 4 5 5 5 6
5 4 3 3 3 3 4 4 4 3 3 2 2 2 1 1 2 2 2 2 2 2 2 1 1 2 4 4 5 4 4 3 3 3 4 4 5 5 5 5 5 6 7
5 4 3 3 3 3 4 5 4 4 3 2 2 2 2 2 2 2 2 1 1 1 1 1 1 1 0 2 3 4 4 4 4 4 5 5 5 5 6 6 6 6 7
4 4 4 3 3 3 4 5 5 4 3 2 2 2 2 3 2 2 2 2 2 1 1 0 1 1 1 1 2 3 4 5 5 5 5 5 6 6 6 6 6 7 7
4 4 4 4 3 3 4 5 6 5 4 3 2 2 2 2 1 3 4 3 2 2 2 1 1 2 2 2 2 1 4 5 6 6 6 6 6 6 6 7 7 7 8
4 4 4 4 4 3 4 5 6 5 6 5 3 2 2 1 2 2 3 4 3 3 3 2 3 2 3 2 2 3 4 5 6 7 7 7 7 7 7 7 8 8 8
3 4 4 4 4 3 4 4 5 6 5 5 4 3 3 2 3 2 3 3 3 3 3 3 3 3 3 3 3 3 5 6 7 7 8 8 8 8 8 8 8 8 8
3 4 4 4 4 3 4 4 4 6 5 6 5 5 4 4 4 3 4 4 4 3 4 4 4 4 3 4 4 4 5 6 7 8 9 9 9 9 9 10 10 9 9
3 4 4 4 3 3 3 4 4 5 6 6 6 5 5 4 3 4 4 4 4 4 3 4 4 4 4 4 4 4 6 6 8 9 9 9 9 9 10 10 11 11 10
4 5 4 4 4 4 4 4 3 4 4 5 5 5 4 4 4 5 4 4 4 4 4 5 4 5 4 4 5 6 6 7 8 9 10 11 11 10 10 11 11 11 11
3 5 4 4 4 4 4 4 3 4 4 4 5 5 5 4 4 5 5 5 5 5 5 5 4 4 4 5 5 6 7 7 9 10 11 11 11 11 11 11 11 11 11
4 4 4 4 4 4 4 4 4 4 4 4 4 5 5 5 5 5 5 5 6 6 6 4 4 4 4 5 6 7 8 9 10 10 11 11 12 12 12 12 12 12 12
4 5 5 5 5 5 4 4 4 4 5 5 5 6 6 6 5 5 5 5 6 6 8 6 5 5 6 6 6 7 8 8 8 9 11 12 12 12 13 13 13 13 13
5 5 5 5 5 5 4 5 5 5 5 5 5 6 6 5 7 6 6 7 6 7 7 8 6 5 6 7 7 7 7 7 8 9 11 12 12 12 12 13 13 13 13
5 5 5 5 5 5 5 5 5 5 5 6 6 6 7 7 7 7 7 7 6 6 7 7 7 5 5 5 6 6 7 6 7 8 10 10 11 12 12 13 13 13 13
5 5 5 5 5 5 5 5 5 5 5 6 6 6 7 7 8 7 7 8 7 7 7 7 6 6 6 5 5 6 6 5 5 6 8 9 10 12 12 12 13 13 14
4 4 5 5 5 5 5 5 5 5 5 6 6 6 7 7 8 7 6 7 7 7 7 7 7 6 6 5 5 5 6 6 7 5 5 6 7 7 8 10 11 12 13
4 4 5 5 5 4 4 5 5 5 5 6 6 6 6 7 8 9 10 10 9 9 9 8 7 8 8 7 6 5 6 6 6 3 5 7 6 7 7 8 10 12 13
4 5 5 5 6 5 5 6 6 6 6 6 6 6 5 6 7 7 8 10 11 12 12 10 10 10 9 7 6 7 7 7 8 6 6 8 7 7 7 9 11 13 13
4 5 5 5 5 5 5 6 6 6 6 7 7 6 6 6 6 6 6 7 8 9 10 10 10 10 8 7 7 8 8 8 8 7 5 7 7 7 7 8 11 12 13
4 5 5 5 5 5 5 5 5 5 5 6 6 6 6 6 6 7 7 8 8 8 8 11 12 11 11 10 9 6 6 6 7 7 5 5 6 7 7 7 8 10 12
5 4 4 5 5 5 5 6 6 4 5 5 5 5 6 7 6 7 7 8 9 8 6 6 7 9 9 9 10 9 7 7 6 5 4 4 5 5 5 5 5 7 8
Wind_Direction
160 151 152 157 156 148 152 145 144 140 133 120 123 139 139 134 125 120 99 70 64 72 75 77 85 74 74 74 70 66 57 53 55 52 43 35 27 18 13 10 9 7 1
160 156 147 160 155 154 151 154 148 148 139 130 127 127 133 135 129 125 116 100 73 66 69 68 71 74 68 66 64 60 58 53 54 37 25 23 19 12 9 7 6 2 357
157 157 150 162 161 162 153 148 144 138 138 138 139 128 110 122 131 126 120 110 102 84 71 64 59 61 58 54 55 54 51 48 40 32 24 16 11 6 358 357 355 351 349
153 153 155 155 162 162 156 153 158 146 143 146 146 139 130 120 127 123 121 112 97 90 82 66 55 52 49 42 43 45 42 41 33 23 15 6 359 354 347 346 343 342 341
155 153 153 147 163 167 164 162 162 157 153 151 140 133 129 136 131 129 122 106 95 84 74 83 70 55 46 38 29 29 30 28 21 7 355 348 345 340 336 335 338 340 341
161 155 148 157 162 172 169 166 159 155 152 150 144 134 136 135 144 137 138 125 105 90 63 44 76 70 56 41 28 17 13 4 354 344 339 333 330 326 322 324 329 333 333
164 159 152 163 170 178 177 171 161 156 150 151 155 151 165 176 174 171 170 159 140 119 69 25 353 331 42 62 35 16 2 350 345 337 330 323 318 317 318 320 322 327 331
171 164 166 172 178 174 179 175 167 166 168 181 195 183 195 197 197 210 209 203 202 192 217 289 304 315 323 314 33 16 0 346 340 335 329 325 319 311 312 315 318 321 327
180 178 178 178 179 180 183 186 182 183 180 184 209 216 212 217 207 206 217 220 221 228 233 239 248 261 278 303 318 349 344 335 329 326 324 323 322 320 318 315 314 317 319
185 186 184 181 181 187 190 197 194 195 191 190 193 225 261 241 217 216 210 220 233 247 253 250 240 245 254 262 300 332 324 315 315 314 314 316 317 318 319 319 316 315 314
184 186 189 187 189 192 196 203 201 199 202 201 197 198 213 228 235 232 241 233 240 242 253 258 248 250 253 260 271 306 310 299 299 301 304 308 311 312 311 311 311 312 311
188 194 197 196 196 194 197 205 206 206 208 208 208 208 212 217 217 225 246 252 257 254 258 251 248 252 257 264 269 290 287 288 291 292 295 300 304 306 305 306 306 304 304
194 201 204 206 204 203 203 204 207 210 212 210 212 215 221 231 229 230 234 248 262 268 254 241 237 244 254 266 271 279 274 279 286 288 289 293 296 297 299 299 301 300 298
200 199 207 212 209 203 204 207 211 214 212 217 220 222 224 226 224 226 234 242 258 255 247 246 238 234 243 259 274 269 272 275 284 287 286 289 292 291 291 293 293 294 295
197 197 203 206 206 206 209 207 214 215 214 217 220 223 228 229 227 227 230 235 244 256 261 245 236 229 246 265 274 272 275 276 278 281 282 283 285 287 287 286 287 288 288
194 198 203 208 207 208 210 213 217 218 219 220 221 225 229 231 230 227 225 234 242 251 257 256 256 262 266 273 273 274 275 278 270 272 278 280 281 281 281 282 282 282 282
196 200 206 208 210 211 211 217 223 219 223 227 222 226 230 230 232 231 228 230 234 241 254 266 265 268 266 268 275 275 276 276 273 268 276 279 279 278 277 277 277 278 279
203 205 208 211 214 217 220 224 228 226 227 231 231 232 234 230 233 233 231 232 234 236 247 264 269 271 270 272 278 279 281 278 276 274 273 275 275 274 276 276 275 275 275
207 208 212 216 218 222 226 231 233 235 235 238 236 236 238 234 236 235 233 234 234 235 239 251 263 270 274 277 283 282 279 279 279 278 274 269 270 274 275 273 273 273 274
208 210 215 219 223 224 227 229 233 240 244 246 246 244 243 240 240 240 238 236 235 235 237 244 255 264 269 276 275 280 284 283 282 283 273 271 273 275 272 271 272 273 274
214 215 218 223 226 228 228 227 233 242 248 251 251 249 247 245 248 246 242 238 232 235 239 244 251 259 261 264 267 275 279 290 287 276 280 280 281 278 275 268 267 270 273
219 221 226 229 231 233 232 235 242 243 246 249 252 252 248 242 242 243 245 246 242 238 240 244 249 252 259 263 268 270 279 287 286 275 288 288 282 277 276 273 276 276 274
223 227 232 233 238 238 229 236 240 246 247 248 247 248 245 242 239 245 242 239 242 242 244 247 251 254 261 260 261 264 266 271 276 286 293 285 282 280 281 276 278 278 276
228 234 237 239 245 245 233 239 240 244 250 252 249 247 248 248 242 243 248 249 250 247 242 243 249 256 260 259 252 260 270 277 281 276 267 277 284 285 288 281 274 273 275
234 237 241 242 246 249 231 234 237 243 247 252 252 248 247 250 249 244 247 252 258 261 251 244 251 256 260 257 254 257 259 263 276 276 257 263 282 292 289 280 273 273 276
234 236 240 243 244 249 234 230 236 240 247 254 255 250 244 249 254 249 252 253 257 263 264 257 251 249 251 249 243 242 245 251 267 276 251 248 274 293 291 277 281 283 280
Height
1523 1524 1525 1526 1527 1528 1529 1529 1530 1530 1531 1531 1532 1532 1533 1533 1533 1533 1534 1534 1534 1534 1534 1534 1534 1533 1533 1533 1532 1532 1532 1532 1531 1531 1530 1530 1529 1529 1528 1528 1527 1526 1526
1521 1522 1523 1524 1525 1526 1527 1528 1529 1529 1530 1530 1530 1531 1532 1532 1532 1532 1532 1533 1533 1533 1533 1533 1532 1532 1532 1532 1531 1531 1530 1530 1530 1529 1529 1528 1528 1527 1527 1526 1525 1524 1524
1520 1521 1521 1522 1523 1524 1525 1526 1527 1528 1528 1529 1529 1529 1530 1530 1531 1531 1531 1531 1531 1531 1531 1531 1531 1531 1531 1530 1530 1529 1529 1529 1528 1528 1527 1527 1526 1526 1525 1525 1524 1523 1522
1518 1519 1520 1520 1521 1522 1523 1524 1525 1526 1527 1527 1528 1528 1528 1528 1529 1529 1529 1530 1530 1530 1530 1530 1530 1529 1529 1529 1528 1528 1527 1527 1527 1526 1526 1525 1525 1524 1523 1523 1522 1521 1520
1516 1517 1518 1518 1519 1520 1521 1522 1523 1525 1525 1526 1526 1526 1527 1527 1527 1527 1528 1528 1528 1528 1528 1528 1528 1528 1527 1527 1527 1526 1526 1525 1525 1524 1524 1523 1523 1522 1521 1521 1520 1519 1518
1514 1514 1515 1516 1517 1518 1519 1520 1521 1522 1523 1524 1524 1525 1525 1525 1525 1525 1526 1526 1526 1526 1526 1526 1526 1526 1525 1525 1524 1524 1524 1523 1523 1522 1522 1521 1520 1520 1519 1518 1517 1516 1515
1511 1512 1513 1514 1515 1516 1517 1518 1519 1520 1521 1522 1522 1523 1523 1524 1524 1523 1524 1524 1524 1524 1524 1524 1523 1523 1523 1523 1522 1522 1521 1521 1520 1520 1519 1519 1518 1517 1516 1516 1515 1514 1513
1509 1510 1510 1511 1513 1514 1515 1516 1516 1517 1518 1519 1521 1521 1522 1524 1522 1521 1522 1522 1522 1522 1522 1521 1521 1521 1520 1520 1519 1519 1519 1518 1518 1517 1516 1516 1515 1515 1514 1513 1512 1511 1509
1507 1508 1508 1509 1510 1511 1512 1513 1514 1515 1516 1517 1518 1519 1520 1521 1520 1520 1520 1520 1520 1519 1519 1519 1518 1518 1518 1517 1517 1516 1516 1515 1515 1514 1513 1513 1512 1512 1511 1510 1509 1508 1507
1504 1505 1506 1507 1508 1508 1509 1510 1511 1512 1513 1514 1515 1515 1517 1517 1518 1518 1518 1518 1517 1517 1517 1516 1516 1515 1515 1514 1513 1513 1513 1512 1512 1511 1510 1510 1509 1508 1507 1507 1506 1505 1503
1502 1503 1504 1504 1505 1506 1507 1507 1508 1509 1510 1511 1511 1512 1513 1514 1514 1515 1515 1515 1515 1514 1514 1513 1512 1512 1512 1511 1510 1510 1509 1509 1508 1508 1507 1506 1505 1505 1504 1503 1502 1501 1500
1499 1500 1501 1501 1502 1503 1504 1505 1505 1506 1506 1507 1508 1509 1510 1511 1511 1511 1512 1511 1511 1511 1510 1510 1509 1509 1508 1507 1507 1506 1506 1505 1504 1504 1503 1502 1501 1500 1500 1499 1498 1497 1496
1496 1497 1498 1499 1499 1500 1501 1502 1502 1502 1503 1504 1504 1505 1506 1507 1507 1507 1508 1507 1507 1507 1507 1506 1505 1505 1504 1503 1503 1502 1502 1501 1501 1500 1499 1498 1497 1496 1495 1494 1493 1492 1491
1493 1494 1495 1496 1496 1497 1498 1498 1499 1499 1500 1500 1501 1502 1502 1503 1503 1504 1504 1504 1504 1504 1503 1503 1502 1501 1500 1499 1499 1498 1498 1497 1496 1496 1495 1494 1493 1492 1491 1490 1489 1488 1487
1490 1491 1492 1493 1493 1494 1495 1495 1495 1496 1496 1497 1497 1498 1498 1499 1499 1500 1500 1501 1502 1500 1500 1499 1498 1497 1496 1496 1495 1494 1493 1493 1492 1491 1490 1489 1488 1487 1486 1485 1484 1483 1482
1487 1488 1489 1490 1490 1491 1491 1491 1492 1492 1493 1493 1493 1494 1494 1495 1495 1496 1496 1496 1497 1497 1496 1495 1494 1494 1493 1492 1491 1490 1489 1488 1487 1486 1485 1484 1483 1482 1481 1480 1478 1477 1476
1484 1484 1485 1486 1486 1487 1487 1488 1488 1488 1489 1489 1489 1490 1490 1491 1491 1491 1491 1492 1492 1492 1491 1490 1490 1489 1488 1487 1486 1485 1484 1483 1482 1482 1480 1479 1478 1477 1476 1474 1473 1472 1471
1480 1481 1482 1482 1483 1483 1484 1484 1484 1484 1485 1485 1485 1485 1486 1486 1486 1487 1487 1487 1487 1487 1487 1486 1485 1485 1484 1483 1482 1481 1480 1478 1477 1476 1475 1474 1473 1471 1470 1469 1467 1466 1465
1477 1478 1478 1479 1479 1480 1480 1480 1480 1480 1481 1481 1481 1481 1482 1482 1482 1482 1482 1482 1482 1482 1482 1481 1480 1480 1479 1478 1477 1476 1475 1473 1472 1471 1470 1469 1467 1466 1465 1463 1462 1460 1459
1474 1474 1474 1475 1475 1476 1476 1476 1476 1476 1476 1476 1477 1477 1477 1477 1477 1477 1477 1477 1477 1477 1476 1476 1475 1475 1474 1473 1472 1470 1469 1468 1466 1466 1464 1463 1462 1460 1459 1458 1456 1455 1453
1470 1471 1471 1471 1472 1472 1472 1472 1472 1472 1472 1472 1472 1472 1472 1473 1473 1472 1472 1472 1472 1472 1471 1471 1470 1469 1468 1468 1467 1465 1464 1462 1461 1460 1459 1457 1456 1454 1453 1452 1450 1449 1447
1466 1467 1467 1467 1467 1468 1468 1468 1468 1468 1468 1468 1467 1467 1468 1468 1467 1467 1467 1467 1466 1466 1466 1465 1464 1464 1463 1463 1462 1461 1459 1457 1455 1455 1453 1451 1450 1448 1447 1445 1444 1442 1441
1462 1462 1463 1463 1463 1464 1464 1464 1464 1464 1464 1463 1463 1463 1463 1463 1463 1462 1461 1461 1460 1460 1461 1460 1459 1458 1458 1457 1456 1455 1454 1452 1450 1449 1448 1444 1444 1442 1441 1439 1438 1436 1434
1458 1458 1458 1459 1459 1459 1459 1459 1459 1459 1459 1459 1459 1458 1458 1457 1457 1457 1456 1455 1454 1454 1454 1454 1453 1453 1453 1452 1451 1450 1449 1447 1445 1444 1442 1439 1438 1436 1434 1433 1431 1430 1428
1453 1454 1454 1454 1454 1454 1455 1455 1455 1454 1454 1454 1454 1453 1453 1452 1452 1452 1451 1449 1449 1448 1448 1448 1447 1447 1446 1446 1445 1444 1443 1441 1438 1437 1437 1435 1432 1430 1428 1426 1425 1423 1422
1449 1450 1450 1450 1450 1450 1450 1450 1450 1449 1449 1449 1448 1448 1448 1447 1447 1446 1446 1444 1443 1443 1443 1442 1441 1440 1440 1439 1439 1438 1437 1436 1433 1432 1431 1430 1427 1426 1422 1420 1419 1417 1415